User: anonymous   Login
Location: Unnamed
(51.8936°N, 11.0665°E)
Time: 09:24:27
(UTC+01:00)
Language:

LEMUR 2 MORAG - Orbit

View from above orbital plane
View from above orbital plane
View from above satellite
View from above satellite

Ground track
Ground track

The orbit data is extracted from the following two-line orbital elements,

1 44403U 19038T   22028.87830239  .00004359  00000-0  22955-3 0  9997
2 44403  97.6110 358.1589 0020188 251.5856 108.3181 15.15982254141922
Epoch (UTC): 28 January 2022 21:04:45
Eccentricity: 0.0020188
inclination: 97.6110°
perigee height: 504 km
apogee height: 532 km
right ascension of ascending node: 358.1589°
argument of perigee: 251.5856°
revolutions per day: 15.15982254
mean anomaly at epoch: 108.3181°
orbit number at epoch: 14192

The dashed part of the orbit path shows where the satellite is in the earth's shadow,  

DLR